[[{"header":{"parameterUnit":"m.s-1","parameterCategory":1,"la1":30.2991,"la2":30.254,"lo1":-89.0895,"lo2":-89.0444,"dy":0.0017,"dx":0.0017,"nx":28,"ny":28,"refTime":"2024-06-22T21:00:00:Z","depth":0,"parameterNumber":2,"parameterNumberName":"U-component_of_WINDS"},"data":[0,0,0,0,0,0,0,0,0,0,0,0,0,0,0,0,0,0,0,0,0,0,0,0,0,0,0,0,0,0,0,0,0,0,0,0,0,0,0,0,0,0,0,0,0,0,0,0,0,0,0,0,0,0,0,0,0,0,3.183,3.183,0,3.1829,3.1829,3.1829,3.1759,3.1757,3.1755,3.1754,3.1752,3.1754,3.1756,0,0,0,0,0,0,0,0,0,0,0,0,0,3.1772,3.1773,3.183,3.183,3.183,3.1829,3.1829,3.1829,3.1759,3.1757,3.1755,3.1753,3.1752,3.1754,3.1756,0,0,0,0,0,0,0,0,0,0,0,0,0,3.1787,3.1774,3.183,3.1795,3.1792,3.1829,3.1829,3.1829,3.176,3.1757,3.1754,3.1752,3.1751,3.1753,3.1756,3.1826,0,0,3.1764,3.1765,0,0,0,0,0,0,0,0,3.1786,3.1789,3.1801,3.1798,3.1794,3.1791,3.1808,3.1828,3.176,3.1772,3.1754,3.175,3.1767,3.1768,3.1774,3.1826,3.1826,3.1764,3.1765,3.1766,3.1767,0,0,0,0,0,0,0,3.1785,3.1788,3.183,3.1801,3.1797,3.1779,3.1779,3.1811,3.1785,3.1771,3.1766,3.1767,3.1765,3.1772,3.1774,3.1826,3.1764,3.1766,3.1767,3.1768,3.1932,3.1935,0,0,0,0,0,0,3.1789,3.1788,3.183,3.183,3.1783,3.1783,3.1782,3.1795,3.1785,3.178,3.1769,3.1763,3.1769,3.1771,3.1773,3.1852,3.1766,3.1769,3.177,3.1929,3.1933,3.1936,0,0,0,0,0,0,3.1788,3.1793,3.183,3.1808,3.1811,3.1787,3.1802,3.1797,3.1803,3.1783,3.1778,3.178,3.1767,3.177,3.1813,3.1851,3.177,3.1772,3.1926,3.193,3.1934,3.2011,0,0,0,0,0,0,3.1786,3.1793,3.182,3.1809,3.1812,3.187,3.1805,3.1798,3.1807,3.18,3.1793,3.1789,3.1765,3.1809,3.1815,3.1853,3.1774,3.1922,3.1928,3.1933,3.2005,3.2017,3.2028,0,0,0,0,0,3.1785,3.1842,3.1822,3.1827,3.1845,3.1872,3.1874,3.1846,3.1811,3.1837,3.1824,3.1789,3.1847,3.1814,3.182,3.1859,3.192,3.1926,3.1932,3.2,3.2015,3.2028,0,0,0,0,0,0,3.1859,3.184,3.1817,3.1873,3.1875,3.186,3.1892,3.1863,3.1875,3.1867,3.1832,3.1831,3.1878,3.1874,3.1838,3.1925,3.1877,3.1885,3.1926,3.194,3.1952,3.195,3.1776,0,0,0,0,0,3.1882,3.1906,3.1888,3.1939,3.1941,3.1917,3.1928,3.1905,3.1906,3.1906,3.1896,3.1898,3.1915,3.1928,3.1944,3.2005,3.2001,3.2035,3.2046,3.2056,3.2062,3.2091,3.2105,3.1957,3.1957,3.1957,0,0,3.193,3.1922,3.1939,3.1954,3.1952,3.1976,3.1918,3.1947,3.1964,3.191,3.1949,3.1942,3.1942,3.1993,3.2015,3.199,3.2103,3.2064,3.2072,3.2073,3.2099,3.2113,3.2126,3.1961,3.196,3.196,0,0,3.2027,3.2026,3.2066,3.2066,3.2064,3.2048,3.2058,3.2048,3.204,3.2079,3.2039,3.2059,3.2092,3.2092,3.2097,3.2194,3.2161,3.2201,3.226,3.2289,3.23,3.231,3.2342,3.2354,3.2208,3.2208,3.2208,0,3.2086,3.2121,3.2091,3.2121,3.2128,3.2081,3.2121,3.2122,3.2126,3.2131,3.2104,3.2142,3.2139,3.2188,3.2212,3.2218,3.2227,3.22,3.2301,3.2311,3.232,3.235,3.2362,3.2212,3.2212,3.2211,3.2211,0,3.2192,3.2217,3.225,3.2254,3.2265,3.23,3.2274,3.2289,3.2266,3.2252,3.2291,3.2286,3.2298,3.2309,3.2288,3.2355,3.2339,3.2308,3.2257,3.2339,3.2366,3.2378,3.2219,3.2217,3.2216,3.2215,0,0,3.2336,3.2321,3.2334,3.2333,3.2328,3.2347,3.238,3.2391,3.2403,3.2408,3.2433,3.2462,3.2432,3.2437,3.2415,3.2441,3.2515,3.2405,3.2405,3.2423,3.2585,3.2607,3.262,3.2495,3.2497,3.2498,3.2584,0,3.2428,3.2482,3.2455,3.2512,3.2533,3.2489,3.2517,3.2517,3.2505,3.2521,3.2508,3.2527,3.2488,3.249,3.2514,3.2501,3.2546,3.2495,3.2516,3.2517,3.2513,3.2635,3.2658,3.2739,3.2595,3.2597,3.2598,0,3.2542,3.2549,3.2608,3.2597,3.2605,3.2631,3.2638,3.2655,3.2653,3.2642,3.2648,3.262,3.2651,3.2604,3.2644,3.261,3.2617,3.2612,3.2615,3.2613,3.256,3.2633,3.2765,3.2776,3.2615,3.2614,3.2613,0,3.2635,3.2662,3.2699,3.2701,3.269,3.2708,3.2705,3.27,3.2708,3.2716,3.272,3.2731,3.2737,3.2746,3.2721,3.269,3.2764,3.2716,3.2755,3.2755,3.2769,3.2768,3.2901,3.2781,3.278,3.278,3.278,0,3.2739,3.2776,3.2741,3.2764,3.2803,3.2773,3.2813,3.2804,3.2801,3.2821,3.2785,3.2804,3.2772,3.2788,3.277,3.2805,3.2809,3.28,3.2793,3.2801,3.2801,3.2802,3.2795,3.2783,3.2783,3.2782,3.2782,0,3.2849,3.2828,3.2865,3.2851,3.2848,3.2878,3.2865,3.2886,3.2872,3.2897,3.2902,3.2879,3.2897,3.2874,3.289,3.2877,3.2923,3.2911,3.2923,3.2918,3.2957,3.2952,3.3092,3.3107,3.2981,3.2982,3.2983,0,3.2915,3.2942,3.293,3.294,3.2938,3.2956,3.2963,3.2935,3.2944,3.2943,3.2963,3.2978,3.2987,3.3016,3.3001,3.3013,3.2998,3.3046,3.2999,3.3005,3.2994,3.2991,3.2993,3.3054,3.3056,3.3057,3.3058,0,3.3032,3.3019,3.3031,3.304,3.3049,3.3055,3.3057,3.3068,3.3038,3.305,3.3067,3.3074,3.3089,3.3103,3.311,3.3106,3.3076,3.3074,3.3082,3.3088,3.3093,3.3087,3.2945,3.307,3.3068,3.3068,3.3067,3.3067,3.3119,3.314,3.3134,3.3148,3.3147,3.315,3.3167,3.3155,3.3168,3.3177,3.316,3.3181,3.3177,3.3184,3.3183,3.3198,3.3177,3.3191,3.3194,3.3196,3.3201,3.3094,3.32,3.32,3.3199,3.3199,3.3199,0,3.3231,3.3225,3.3239,3.3242,3.3253,3.3226,3.3227,3.3237,3.3255,3.3255,3.3264,3.3282,3.3295,3.3282,3.3292,3.3307,3.3293,3.331,3.3307,3.3306,3.3221,3.321,3.3321,3.3321,3.3321,3.332,3.332,3.332,3.329,3.3323,3.331,3.3341,3.3335,3.3354,3.3356,3.3359,3.3357,3.3379,3.3389,3.338,3.3374,3.3383,3.3393,3.3389,3.3393,3.3414,3.3404,3.3324,3.3312,3.3301,3.329,3.3416,3.3416,3.3488,3.3488,3.3489]},{"header":{"parameterUnit":"m.s-1","parameterCategory":1,"la1":30.2991,"la2":30.254,"lo1":-89.0895,"lo2":-89.0444,"dy":0.0017,"dx":0.0017,"nx":28,"ny":28,"refTime":"2024-06-22T21:00:00:Z","depth":0,"parameterNumber":3,"parameterNumberName":"V-component_of_WINDS"},"data":[0,0,0,0,0,0,0,0,0,0,0,0,0,0,0,0,0,0,0,0,0,0,0,0,0,0,0,0,0,0,0,0,0,0,0,0,0,0,0,0,0,0,0,0,0,0,0,0,0,0,0,0,0,0,0,0,0,0,1.3833,1.3834,0,1.3922,1.3923,1.3924,1.3943,1.3942,1.3942,1.3941,1.4034,1.4037,1.404,0,0,0,0,0,0,0,0,0,0,0,0,0,1.3679,1.3681,1.3833,1.3834,1.3835,1.3922,1.3923,1.3925,1.3943,1.3942,1.3942,1.3941,1.4033,1.4036,1.404,0,0,0,0,0,0,0,0,0,0,0,0,0,1.3755,1.3682,1.3833,1.3855,1.3858,1.3922,1.3923,1.3925,1.3943,1.3942,1.3941,1.394,1.4031,1.4036,1.4041,1.4089,0,0,1.4055,1.4057,0,0,0,0,0,0,0,0,1.375,1.376,1.385,1.3853,1.3857,1.392,1.3903,1.398,1.3944,1.3911,1.3941,1.394,1.3997,1.4004,1.4023,1.4094,1.4098,1.4055,1.4058,1.406,1.4061,0,0,0,0,0,0,0,1.3745,1.3756,1.3868,1.3852,1.3856,1.386,1.387,1.3918,1.3958,1.3914,1.3915,1.3926,1.3998,1.4019,1.4026,1.4099,1.4055,1.4059,1.4062,1.4064,1.4212,1.4214,0,0,0,0,0,0,1.3736,1.3752,1.3865,1.3871,1.38,1.3864,1.3875,1.3901,1.3958,1.3966,1.3926,1.3926,1.4011,1.402,1.4029,1.4089,1.406,1.4064,1.4067,1.4211,1.4213,1.4214,0,0,0,0,0,0,1.3732,1.3746,1.3862,1.3812,1.3827,1.3868,1.3897,1.3903,1.3924,1.3968,1.3975,1.394,1.4011,1.4022,1.4074,1.4093,1.4066,1.4071,1.421,1.4212,1.4213,1.421,0,0,0,0,0,0,1.3728,1.3744,1.3763,1.3812,1.383,1.3905,1.3898,1.3906,1.3932,1.3932,1.3982,1.3989,1.4011,1.4067,1.4078,1.4098,1.4074,1.4208,1.4211,1.4213,1.4209,1.4211,1.4214,0,0,0,0,0,1.3722,1.3759,1.3764,1.3778,1.3854,1.3906,1.3916,1.394,1.3933,1.3952,1.398,1.3988,1.4088,1.4072,1.4085,1.4107,1.4207,1.421,1.4213,1.4207,1.4211,1.4214,0,0,0,0,0,0,1.3712,1.3766,1.3772,1.3826,1.3861,1.3909,1.3934,1.3943,1.3982,1.3981,1.4009,1.402,1.407,1.4093,1.4074,1.4156,1.4148,1.4153,1.4139,1.4143,1.4145,1.4139,1.4078,0,0,0,0,0,1.3716,1.3754,1.3799,1.3842,1.3859,1.3894,1.3917,1.3933,1.397,1.3986,1.4017,1.4054,1.4094,1.412,1.4159,1.4212,1.4223,1.4233,1.4236,1.4238,1.4242,1.4271,1.4276,1.4223,1.4223,1.4223,0,0,1.3725,1.3759,1.3781,1.3841,1.387,1.3908,1.3906,1.3947,1.3976,1.3992,1.4042,1.4067,1.4109,1.4161,1.4186,1.4183,1.4259,1.4241,1.4242,1.4246,1.4275,1.428,1.4284,1.4224,1.4224,1.4224,0,0,1.3761,1.379,1.3829,1.3858,1.3902,1.3924,1.3933,1.398,1.3996,1.4047,1.406,1.4094,1.4162,1.4192,1.4216,1.4261,1.4269,1.4273,1.4287,1.4315,1.4319,1.4323,1.4339,1.4344,1.4277,1.4277,1.4277,0,1.3766,1.3824,1.3848,1.3888,1.3913,1.3929,1.3968,1.3995,1.405,1.4067,1.4063,1.4148,1.4178,1.4237,1.4247,1.4267,1.4278,1.4268,1.4316,1.4321,1.4325,1.434,1.4346,1.4277,1.4277,1.4277,1.4277,0,1.3828,1.3868,1.3894,1.3945,1.3974,1.4014,1.4043,1.4069,1.4082,1.4105,1.4155,1.4192,1.4238,1.4253,1.4266,1.4314,1.431,1.4311,1.4302,1.4329,1.4344,1.435,1.4278,1.4278,1.4277,1.4277,0,0,1.3861,1.3924,1.3933,1.3956,1.4005,1.4036,1.4076,1.4121,1.4142,1.4179,1.4213,1.427,1.427,1.4297,1.4313,1.4338,1.4371,1.4335,1.4337,1.434,1.4425,1.4424,1.443,1.4376,1.4377,1.4378,1.4421,0,1.3902,1.3973,1.3996,1.4055,1.4092,1.4107,1.4141,1.4175,1.4197,1.4231,1.4256,1.4295,1.4293,1.4309,1.4334,1.4361,1.4388,1.4359,1.4408,1.4409,1.4397,1.4438,1.4438,1.4476,1.4427,1.4428,1.4429,0,1.396,1.3997,1.406,1.4103,1.4119,1.415,1.4192,1.4225,1.4263,1.4277,1.4306,1.432,1.4362,1.4351,1.4409,1.4388,1.441,1.4426,1.4428,1.4434,1.4421,1.4445,1.4489,1.4495,1.4438,1.4437,1.4437,0,1.3977,1.4042,1.4088,1.4107,1.4159,1.418,1.4202,1.424,1.4265,1.4301,1.4318,1.4359,1.4382,1.4414,1.4438,1.4428,1.4494,1.4485,1.4507,1.4506,1.452,1.4519,1.4569,1.4534,1.4534,1.4534,1.4534,0,1.4021,1.4058,1.4096,1.4124,1.4167,1.4192,1.4233,1.4257,1.4289,1.4322,1.4338,1.4368,1.4399,1.4433,1.4453,1.4497,1.4508,1.452,1.4525,1.4519,1.4517,1.4533,1.4531,1.4535,1.4535,1.4535,1.4534,0,1.4047,1.4074,1.4125,1.4169,1.4181,1.421,1.4248,1.4276,1.4298,1.4339,1.435,1.4385,1.4427,1.4454,1.4507,1.452,1.4569,1.4573,1.4556,1.4558,1.4578,1.4575,1.464,1.4649,1.4608,1.4608,1.4609,0,1.4073,1.4102,1.4149,1.4172,1.4194,1.4231,1.4256,1.4282,1.4307,1.4352,1.4375,1.4417,1.4452,1.4517,1.4547,1.4588,1.4593,1.4613,1.4599,1.4592,1.4593,1.4591,1.4594,1.4615,1.4615,1.4616,1.4616,0,1.4116,1.4128,1.4163,1.4203,1.4233,1.4266,1.4299,1.4317,1.4348,1.4376,1.4418,1.4445,1.4499,1.454,1.4583,1.4607,1.4616,1.462,1.4627,1.4621,1.4609,1.4615,1.4561,1.4618,1.4618,1.4618,1.4618,1.4617,1.4143,1.4169,1.4206,1.4245,1.4272,1.4303,1.4331,1.4356,1.4391,1.4436,1.4449,1.4493,1.4529,1.4588,1.4612,1.4646,1.4644,1.4655,1.4658,1.466,1.4659,1.4604,1.4654,1.4654,1.4654,1.4654,1.4654,0,1.4187,1.4211,1.4246,1.4291,1.4322,1.4328,1.4364,1.439,1.4428,1.4461,1.4494,1.4542,1.4582,1.4615,1.4657,1.4678,1.4683,1.4688,1.4687,1.4692,1.4659,1.4649,1.4683,1.4683,1.4683,1.4683,1.4683,1.4683,1.4213,1.4257,1.4273,1.4331,1.4355,1.4398,1.4418,1.4446,1.4472,1.4525,1.4558,1.4579,1.4612,1.4655,1.4692,1.4701,1.4715,1.4719,1.4728,1.4697,1.4694,1.4691,1.4681,1.4722,1.4722,1.4758,1.4758,1.4758]}]]